When you browse on this site, cookies collect data to enhance your experience and personalize the content and advertising you see.
Visit our Privacy Policy to learn more. By continuing to use the site, you agree to this use of cookies and data.
  • In Österreich
  • Länderverzeichnis
  • Für 7 Tage
  • Wassertemperatur
  • Satellitenkarten
  • Wetterkarte
  • News
  • Widgets
  • user-avatar
    Anmelden

    Stündliche Wetter Winchester

    Heute, 13 Dezember, Donnerstag

    Zeit Temperatur Niederschläge Wind Luftdruck Luftfeuchtigkeit
    00:00 +1°C° 0 mm 8 m/S 756 mmHg 76%
    01:00 +1°C° 0 mm 8 m/S 756 mmHg 76%
    02:00 +1°C° 0 mm 8 m/S 755 mmHg 76%
    03:00 +1°C° 0 mm 8 m/S 755 mmHg 76%
    04:00 +1°C° 0 mm 8 m/S 754 mmHg 76%
    05:00 +1°C° 0 mm 8 m/S 754 mmHg 75%
    06:00 +1°C° 0 mm 9 m/S 754 mmHg 74%
    07:00 +1°C° 0 mm 9 m/S 754 mmHg 74%
    08:00 +1°C° 0 mm 8 m/S 754 mmHg 74%
    09:00 +1°C° 0 mm 8 m/S 754 mmHg 74%
    10:00 +1°C° 0 mm 8 m/S 755 mmHg 72%
    11:00 +2°C° 0 mm 8 m/S 755 mmHg 70%
    12:00 +2°C° 0 mm 8 m/S 755 mmHg 68%
    13:00 +2°C° 0 mm 8 m/S 755 mmHg 69%
    14:00 +2°C° 0 mm 8 m/S 755 mmHg 69%
    15:00 +2°C° 0 mm 7 m/S 755 mmHg 69%
    16:00 +2°C° 0 mm 7 m/S 755 mmHg 70%
    17:00 0°C° 0 mm 7 m/S 756 mmHg 70%
    18:00 0°C° 0 mm 7 m/S 756 mmHg 71%
    19:00 -1°C° 0 mm 6 m/S 757 mmHg 72%
    20:00 -1°C° 0 mm 6 m/S 757 mmHg 74%
    21:00 0°C° 0 mm 5 m/S 758 mmHg 75%
    22:00 0°C° 0 mm 5 m/S 758 mmHg 77%
    23:00 -1°C° 0 mm 4 m/S 758 mmHg 79%

    Morgen, 14 Dezember, Freitag

    Zeit Temperatur Niederschläge Wind Luftdruck Luftfeuchtigkeit
    00:00 -1°C° 0 mm 4 m/S 759 mmHg 80%
    01:00 -2°C° 0 mm 4 m/S 759 mmHg 80%
    02:00 -2°C° 0 mm 4 m/S 759 mmHg 80%
    03:00 -2°C° 0 mm 4 m/S 759 mmHg 79%
    04:00 -2°C° 0 mm 4 m/S 759 mmHg 79%
    05:00 -2°C° 0 mm 4 m/S 760 mmHg 79%
    06:00 -2°C° 0 mm 3 m/S 760 mmHg 79%
    07:00 -1°C° 0 mm 3 m/S 760 mmHg 78%
    08:00 -1°C° 0 mm 3 m/S 761 mmHg 78%
    09:00 -1°C° 0 mm 3 m/S 761 mmHg 77%
    10:00 0°C° 0 mm 3 m/S 761 mmHg 73%
    11:00 +1°C° 0 mm 4 m/S 761 mmHg 69%
    12:00 +3°C° 0 mm 4 m/S 761 mmHg 65%
    13:00 +3°C° 0 mm 4 m/S 761 mmHg 67%
    14:00 +3°C° 0 mm 3 m/S 761 mmHg 69%
    15:00 +2°C° 0 mm 3 m/S 761 mmHg 72%
    16:00 +2°C° 0 mm 3 m/S 760 mmHg 74%
    17:00 +1°C° 0 mm 3 m/S 760 mmHg 77%
    18:00 0°C° 0 mm 3 m/S 760 mmHg 79%
    19:00 -1°C° 0 mm 4 m/S 760 mmHg 79%
    20:00 -1°C° 0 mm 4 m/S 760 mmHg 78%
    21:00 -1°C° 0 mm 4 m/S 760 mmHg 77%
    22:00 0°C° 0 mm 4 m/S 760 mmHg 76%
    23:00 0°C° 0 mm 5 m/S 760 mmHg 75%

    übermorgen, 15 Dezember, Samstag

    Zeit Temperatur Niederschläge Wind Luftdruck Luftfeuchtigkeit
    00:00 +1°C° 0 mm 5 m/S 759 mmHg 74%
    01:00 +1°C° 0 mm 5 m/S 759 mmHg 74%
    02:00 +1°C° 0 mm 5 m/S 759 mmHg 73%
    03:00 +1°C° 0 mm 6 m/S 758 mmHg 73%
    04:00 +2°C° 0 mm 6 m/S 757 mmHg 72%
    05:00 +2°C° 0 mm 7 m/S 757 mmHg 72%
    06:00 +1°C° 0 mm 8 m/S 756 mmHg 72%
    07:00 +1°C° 0 mm 8 m/S 756 mmHg 72%
    08:00 +1°C° 0 mm 9 m/S 755 mmHg 72%
    09:00 +1°C° 0 mm 9 m/S 754 mmHg 72%
    10:00 +2°C° 0.3 mm 9 m/S 754 mmHg 76%
    11:00 +2°C° 0.3 mm 9 m/S 753 mmHg 80%
    12:00 +2°C° 0.3 mm 10 m/S 752 mmHg 84%
    13:00 +3°C° 0.4 mm 9 m/S 751 mmHg 87%
    14:00 +3°C° 0.4 mm 9 m/S 750 mmHg 90%
    15:00 +3°C° 0.4 mm 9 m/S 749 mmHg 93%
    16:00 +5°C° 0.7 mm 9 m/S 748 mmHg 93%
    17:00 +6°C° 0.7 mm 9 m/S 747 mmHg 94%
    18:00 +7°C° 0.7 mm 10 m/S 746 mmHg 95%
    19:00 +8°C° 0.9 mm 11 m/S 745 mmHg 94%
    20:00 +9°C° 0.9 mm 11 m/S 744 mmHg 93%
    21:00 +10°C° 0.9 mm 12 m/S 743 mmHg 92%
    22:00 +10°C° 0.2 mm 13 m/S 742 mmHg 86%
    23:00 +9°C° 0.2 mm 14 m/S 741 mmHg 81%

    16 Dezember, Sonntag

    Zeit Temperatur Niederschläge Wind Luftdruck Luftfeuchtigkeit
    00:00 +9°C° 0.2 mm 14 m/S 741 mmHg 75%
    01:00 +8°C° 0 mm 13 m/S 742 mmHg 74%
    02:00 +8°C° 0 mm 13 m/S 742 mmHg 72%
    03:00 +7°C° 0 mm 12 m/S 743 mmHg 71%
    04:00 +6°C° 0 mm 11 m/S 744 mmHg 72%
    05:00 +6°C° 0 mm 10 m/S 745 mmHg 73%
    06:00 +5°C° 0 mm 9 m/S 746 mmHg 73%
    07:00 +5°C° 0 mm 8 m/S 747 mmHg 74%
    08:00 +5°C° 0 mm 8 m/S 747 mmHg 75%
    09:00 +5°C° 0 mm 8 m/S 748 mmHg 76%
    10:00 +5°C° 0 mm 7 m/S 748 mmHg 74%
    11:00 +6°C° 0 mm 7 m/S 749 mmHg 71%
    12:00 +8°C° 0 mm 7 m/S 749 mmHg 69%
    13:00 +8°C° 0.2 mm 6 m/S 749 mmHg 72%
    14:00 +7°C° 0.2 mm 6 m/S 749 mmHg 75%
    15:00 +7°C° 0.2 mm 6 m/S 749 mmHg 78%
    16:00 +7°C° 0.7 mm 5 m/S 749 mmHg 82%
    17:00 +6°C° 0.7 mm 5 m/S 749 mmHg 85%
    18:00 +6°C° 0.7 mm 4 m/S 749 mmHg 88%
    19:00 +6°C° 0.5 mm 4 m/S 749 mmHg 88%
    20:00 +5°C° 0.5 mm 4 m/S 749 mmHg 88%
    21:00 +5°C° 0.5 mm 4 m/S 750 mmHg 88%
    22:00 +5°C° 0 mm 4 m/S 750 mmHg 89%
    23:00 +3°C° 0 mm 5 m/S 750 mmHg 89%

    17 Dezember, Montag

    Zeit Temperatur Niederschläge Wind Luftdruck Luftfeuchtigkeit
    00:00 +3°C° 0 mm 5 m/S 751 mmHg 89%
    01:00 +3°C° 0 mm 5 m/S 751 mmHg 89%
    02:00 +3°C° 0 mm 4 m/S 752 mmHg 90%
    03:00 +3°C° 0 mm 4 m/S 752 mmHg 90%
    04:00 +3°C° 0 mm 4 m/S 752 mmHg 90%
    05:00 +3°C° 0 mm 4 m/S 753 mmHg 90%
    06:00 +3°C° 0 mm 4 m/S 753 mmHg 90%
    07:00 +3°C° 0 mm 4 m/S 754 mmHg 90%
    08:00 +3°C° 0 mm 4 m/S 754 mmHg 90%
    09:00 +3°C° 0 mm 3 m/S 755 mmHg 90%
    10:00 +4°C° 0 mm 4 m/S 755 mmHg 85%
    11:00 +6°C° 0 mm 4 m/S 755 mmHg 81%
    12:00 +7°C° 0 mm 4 m/S 755 mmHg 77%
    13:00 +7°C° 0 mm 4 m/S 755 mmHg 79%
    14:00 +7°C° 0 mm 5 m/S 755 mmHg 81%
    15:00 +7°C° 0 mm 5 m/S 755 mmHg 82%
    16:00 +7°C° 0 mm 5 m/S 754 mmHg 84%
    17:00 +7°C° 0 mm 6 m/S 754 mmHg 85%
    18:00 +5°C° 0 mm 6 m/S 754 mmHg 87%
    19:00 +6°C° 0 mm 7 m/S 754 mmHg 86%
    20:00 +7°C° 0 mm 8 m/S 753 mmHg 86%
    21:00 +8°C° 0 mm 9 m/S 753 mmHg 85%
    22:00 +8°C° 0.2 mm 9 m/S 752 mmHg 86%
    23:00 +8°C° 0.2 mm 9 m/S 752 mmHg 87%

    18 Dezember, Dienstag

    Zeit Temperatur Niederschläge Wind Luftdruck Luftfeuchtigkeit
    00:00 +9°C° 0.2 mm 10 m/S 751 mmHg 88%
    01:00 +9°C° 0.7 mm 10 m/S 750 mmHg 87%
    02:00 +9°C° 0.7 mm 11 m/S 750 mmHg 87%
    03:00 +9°C° 0.7 mm 11 m/S 749 mmHg 87%
    04:00 +9°C° 0.3 mm 11 m/S 748 mmHg 85%
    05:00 +8°C° 0.3 mm 12 m/S 747 mmHg 83%
    06:00 +8°C° 0.3 mm 12 m/S 746 mmHg 82%
    07:00 +8°C° 0.5 mm 12 m/S 745 mmHg 81%
    08:00 +8°C° 0.5 mm 13 m/S 745 mmHg 80%
    09:00 +8°C° 0.5 mm 14 m/S 744 mmHg 79%
    10:00 +8°C° 1.8 mm 13 m/S 743 mmHg 80%
    11:00 +7°C° 1.8 mm 13 m/S 743 mmHg 82%
    12:00 +7°C° 1.8 mm 13 m/S 742 mmHg 84%
    13:00 +7°C° 1.7 mm 10 m/S 742 mmHg 86%
    14:00 +7°C° 1.7 mm 8 m/S 742 mmHg 88%
    15:00 +8°C° 1.7 mm 5 m/S 741 mmHg 89%
    16:00 +7°C° 0.1 mm 5 m/S 741 mmHg 89%
    17:00 +6°C° 0.1 mm 5 m/S 742 mmHg 88%
    18:00 +6°C° 0.1 mm 5 m/S 742 mmHg 87%
    19:00 +6°C° 0.1 mm 5 m/S 742 mmHg 86%
    20:00 +6°C° 0.1 mm 5 m/S 742 mmHg 86%
    21:00 +5°C° 0.1 mm 6 m/S 743 mmHg 85%
    22:00 +5°C° 0.5 mm 6 m/S 743 mmHg 85%
    23:00 +5°C° 0.5 mm 6 m/S 742 mmHg 85%
    Mehr zeigen